Location: Kellogg
(38.0159°N, 90.0546°W)
Time: 00:42:30
(UTC+00:00)

Vanguard 2 - Pass Details

Date: 19 September 2024
Orbit: 552 x 2910 km, 32.9° (Epoch: 15 October)

Event Time Altitude Azimuth Distance (km) Brightness Sun altitude
Rises 11:43:18 0° 269° (W) 3,249 - -1.3°
Exits shadow 11:43:39 - 268° (W) 3,122 9.9 -1.3°
Reaches altitude 10° 11:45:26 10° 263° (W) 2,511 9.5 -0.9°
Maximum altitude 11:51:08 46° 190° (S) 1,520 9.0 0.2°
Drops below altitude 10° 12:00:24 10° 122° (ESE) 4,027 12.3 2.0°
Sets 12:04:44 0° 117° (ESE) 5,424 13.2 2.9°
